Regional Weather Roundup
Issued by NWS Cleveland, OH

Home | Current Version | Previous Version | Text Only | Print | Product List | Glossary On
Versions: 1 2 3 4 5 6 7 8 9 10 11 12 13 14 15 16 17 18 19 20 21 22 23 24 25 26 27 28 29 30 31 32 33 34 35 36 37 38 39 40 41 42 43 44 45 46 47 48 49 50
000
ASUS41 KCLE 020012
RWRCLE
OHIO REGIONAL WEATHER ROUNDUP
NATIONAL WEATHER SERVICE WILMINGTON, OH
800 PM EDT FRI JUL 01 2016

NOTE: "FAIR" INDICATES FEW OR NO CLOUDS BELOW 12,000 FEET WITH NO
SIGNIFICANT WEATHER AND/OR OBSTRUCTIONS TO VISIBILITY.

OHZ001>008-015>018-024>027-034-035-043-044-020100-
   NORTHWEST OHIO

CITY           SKY/WX    TMP DP  RH WIND       PRES   REMARKS
DEFIANCE       FAIR      74  49  41 NW9       30.04R
FINDLAY        FAIR      74  49  41 NW8       30.02R
TOLEDO EXPRESS FAIR      74  47  38 NW9       30.02R
TOLEDO EXEC    FAIR      75  50  41 NW13      30.02R
LIMA           FAIR      73  53  49 N12       30.03S
$$

OHZ009>014-019>023-028>033-038-089-020100-
   NORTHEAST OHIO

CITY           SKY/WX    TMP DP  RH WIND       PRES   REMARKS
CLE-HOPKINS    FAIR      72  57  59 N12       30.03R
CLE-LAKEFRONT  FAIR      71  60  68 N14       29.99R
CUY CO. ARPT   NOT AVBL
LORAIN-ELYRIA  FAIR      72  53  51 NW10      30.01S
ASHTABULA      MOCLDY    65  59  81 N7        30.01R
AKRON-CANTON   FAIR      72  51  47 NW12      30.00R
WOOSTER        FAIR      71  53  52 N13       30.01R
MANSFIELD      PTSUNNY   73  53  49 N12       30.02R
YOUNGSTOWN     FAIR      71  54  54 NW12G21   29.98R
$$

OHZ042-051>053-060>062-070>072-077>081-020100-
  SOUTHWEST OHIO

CITY           SKY/WX    TMP DP  RH WIND       PRES   REMARKS
CINC-COVINGTON FAIR      79  56  45 N12       30.02R
CINC-LUNKEN    FAIR      78  56  46 NW12G21   30.01R
HAMILTON       FAIR      78  54  43 NW14      30.02S
DAYTON         FAIR      75  52  44 NW12      30.04S
WRIGHT-PAT AFB FAIR      76  54  45 NW13      30.02R
DAYTON GENERAL FAIR      77  54  44 N12       30.02S
WILMINGTON     FAIR      76  55  48 N12       30.02R
$$

OHZ036-037-039>041-045>050-054>059-063>069-073>076-082>088-020100-
  CENTRAL AND SOUTHEAST OHIO

CITY           SKY/WX    TMP DP  RH WIND       PRES   REMARKS
COLUMBUS       FAIR      76  54  46 NW12      30.00R
OSU AIRPORT    FAIR      75  54  47 N10       30.00S
BOLTON FIELD   FAIR      76  56  49 NW9       30.01R
RICKENBACK AFB PTSUNNY   76  56  48 N10       29.99S
NEWARK         FAIR      76  54  46 NW9       30.00R
MARION         FAIR      75  51  43 NW10      30.02R
LANCASTER      FAIR      77  57  50 NW10      30.00R
ZANESVILLE     MOCLDY    79  56  45 NW13      29.99R
NEW PHILLY     FAIR      77  54  44 NW10      29.98R
$$



USA.gov is the U.S. government's official web portal to all federal, state and local government web resources and services.